Flag for U.S.A. Weather past 2 weeks in Moreno Valley, California, U.S.A.

Now
70 °F

Sunny.


Feels Like: 74 °F
Forecast: 61 / 82 °F
Wind: 2 mph from North

Location: Riverside / March Air Force Base

Current Time: Sep 2, 2015 at 10:57:45 AM

Latest Report: Sep 2, 2015 at 9:58 AM


Visibility: 10 mi

Pressure: 29.97 "Hg

Humidity: 69%

Dew point: 60 °F

Location of Moreno ValleyLocation

Historic Weather in Moreno Valley — Graph

°F

Moreno Valley temperature yesterday

Maximum temperature yesterday: 87 °F (at 3:58 PM)
Minimum temperature yesterday: 62 °F (at 2:58 AM)
Average temperature yesterday: 72 °F

Past Weeks' High & Low Weather Summary

 TemperatureHumidityPressure
High103 °F (Aug 28, 2:58 PM)100% (Aug 20, 4:02 AM)29.99 "Hg (Aug 20, 4:02 AM)
Low61 °F (Aug 20, 4:02 AM)16% (Aug 28, 3:58 PM)29.79 "Hg (Aug 20, 4:58 PM)
Average77 °F56%29.89 "Hg
* Reported Aug 18 9:55 AM — Sep 2 9:58 AM, Moreno Valley, Weather by CustomWeather, © 2015

Note: Actual official high and low records may vary slightly from our data, if they occured in-between our weather recording intervals... More about our weather records

Advertising

Moreno Valley weather history for previous 24 hours

 ConditionsComfort  
Time TempWeatherWind HumidityBarometerVisibility
9:58 AM
Wed, Sep 2
70 °FSunny.2 mph69%29.97 "Hg10 mi
8:58 AM68 °FPartly sunny.3 mph78%29.97 "Hg10 mi
7:58 AM65 °FOvercast.5 mph84%29.96 "Hg10 mi
6:58 AM65 °FOvercast.2 mph88%29.96 "Hg10 mi
5:58 AM65 °FOvercast.3 mph90%29.94 "Hg10 mi
4:58 AM65 °FOvercast.No wind90%29.93 "Hg10 mi
3:58 AM64 °FLow clouds.No wind92%29.94 "Hg10 mi
2:58 AM64 °FLow clouds.3 mph93%29.95 "Hg10 mi
1:58 AM65 °FOvercast.3 mph88%29.95 "Hg10 mi
12:58 AM64 °FClear.2 mph85%29.96 "Hg10 mi
11:58 PM
Tue, Sep 1
65 °FClear.1 mph82%29.94 "Hg10 mi
10:58 PM67 °FClear.6 mph79%29.95 "Hg10 mi
9:58 PM69 °FClear.7 mph71%29.94 "Hg10 mi
8:58 PM72 °FClear.3 mph65%29.93 "Hg10 mi
7:58 PM74 °FSunny.6 mph61%29.90 "Hg10 mi
6:58 PM77 °FSunny.10 mph52%29.87 "Hg10 mi
5:58 PM82 °FSunny.13 mph44%29.85 "Hg10 mi
4:58 PM87 °FSunny.8 mph35%29.84 "Hg10 mi
3:58 PM87 °FSunny.8 mph35%29.84 "Hg10 mi
1:58 PM84 °FSunny.6 mph39%29.88 "Hg10 mi
12:58 PM83 °FPassing clouds.3 mph38%29.89 "Hg10 mi
11:58 AM79 °FSunny.2 mph45%29.90 "Hg10 mi
10:58 AM74 °FSunny.5 mph59%29.93 "Hg10 mi
Weather by CustomWeather, © 2015

See weather overviewHow to use our weather pages